Location: Unspecified
(51.5147°N, 7.4673°E)
Time: 06:49:24
(UTC+01:00)

A-11 Canister half - Pass Details

Date: 23 February 2026
Orbit: 1512 x 1687 km, 47.2° (Epoch: 5 March)

Event Time Altitude Azimuth Distance (km) Brightness Sun altitude
Rises 23:39:40 0° 272° (W) 4,937 11.9 -46.1°
Reaches altitude 10° 23:42:53 10° 270° (W) 3,938 11.3 -46.2°
Enters shadow 23:45:54 23° 266° (W) 3,042 10.6 -46.4°
Maximum altitude 23:52:50 67° 192° (SSW) 1,765 - -46.8°
Drops below altitude 10° 00:02:28 10° 113° (ESE) 3,816 - -47.2°
Sets 00:05:32 0° 110° (ESE) 4,777 - -47.3°
